ORBCOMM FM05 [-]

Last updated on Fri Dec 29 2023 00:02:53 GMT+0000 (Coordinated Universal Time)

1 25117U 97084F 23362.50585966 .00002400 00000+0 76922-3 0 9998 2 25117 45.0165 56.2641 0001068 349.7231 10.3597 14.41925651363989
UTC large
Height (km)
Speed (km/s)
/
Latitude / Longitude
Inclination (degrees)
Orbital Period (minutes)
Azimuth
Elevation
Range (km)
Doppler Factor

Next 0 passes for location: London (51.5072 / 0.1276)

Sorry there are no passes over London.